Zurück zum Katalog

STARLINK-5588

AktivKommunikationVLEO
NORAD 55375·PAYLOAD·🇺🇸 United States

Gestartet Jan 26, 2023 von Cape Canaveral Space Force Station

Loading…

Nächste Überflüge (nächste 24 Stunden)

TLE

AktuellSource: CelesTrak SupGP

Epoche: Sep 15, 2026, 01:33 UTC

1 55375C 23013AW  26258.06506944  .00021713  00000+0  78654-3 0  2585
2 55375  43.0027 332.0082 0001408 263.9173 183.9069 15.27563965    11

Verfolge STARLINK-5588 in Echtzeit mit AllMySat

Download on the App Store